Other Public Products
Issued by NWS Grand Forks, ND

Home | Current Version | Previous Version | Graphics & Text | Print | Product List | Glossary On
Versions: 1 2 3 4 5 6 7 8 9 10 11 12 13 14 15 16 17 18 19 20 21 22 23 24 25 26 27 28 29 30 31 32 33 34 35 36 37 38 39 40 41 42 43 44 45 46 47 48 49 50
000
FPUS83 KFGF 280810
OPUFGF
PRAIRIE TO PINES WEATHER ROUNDUP
NATIONAL WEATHER SERVICE EASTERN NORTH DAKOTA/GRAND FORKS ND
300 AM CDT MON JUL 28 2014

 **SATELLITE DATA USED TO AUGMENT SKY COVER AT AUTOMATED STATIONS**
 *****  WEATHER ACROSS EASTERN NORTH DAKOTA  *****

CITY           SKY/WX    TMP DP  RH WIND       PRES   REMARKS
GRAND FORKS    CLOUDY    60  55  83 NW5         N/A
GRAND FORKS AF CLOUDY    60  58  93 W6        30.25R
GRAND CITY NWS   N/A     59 N/A N/A N3          N/A
BUXTON         NOT AVBL
DEVILS LAKE    MOCLDY    54  48  82 NW6       30.26S
FARGO          CLOUDY    60  56  86 N6        30.22S
WAHPETON ARPT  CLOUDY    59  54  82 N6        30.23R
$$

 *****  WEATHER ACROSS CENTRAL AND WESTERN NORTH DAKOTA  *****

CITY           SKY/WX    TMP DP  RH WIND       PRES   REMARKS
JAMESTOWN      CLOUDY    58  55  90 NW5       30.28R
BISMARCK       CLEAR     51  50  96 SW3       30.32S
MINOT          CLEAR     53  50  89 SW8       30.30S
MINOT AFB      CLEAR     52  51  99 SW2       30.29F
GARRISON         N/A     50  48  93 N5        30.31S
WILLISTON      CLEAR     53  50  89 CALM      30.31S
DICKINSON      CLEAR     49  46  90 S7        30.33R
HETTINGER      CLEAR     49  47  93 CALM      30.35S
$$

 *****  OTHER OBSERVATIONS NORTHEAST NORTH DAKOTA  *****

CITY           SKY/WX    TMP DP  RH WIND       PRES   REMARKS
WALHALLA         N/A     57  57 100 CALM        N/A
LANGDON        FAIR      48  46  93 NW3       30.27R
CAVALIER       FAIR      55  52  88 NW6       30.25R
GRAFTON        CLOUDY    57  55  94 NW7       30.24R
CANDO          FAIR      50  50 100 W3        30.29R
FORT TOTTEN      N/A     57  53  85 CALM      29.95S
ROLLA          FAIR      50  50 100 NW6       30.30S
RUGBY          FOG       50  50 100 CALM      30.29S VSB 1/2
 ***** THE ABOVE OBSERVATIONS ARE NON NWS ARE NOT QUALITY
        CONTROLLED AND MAY MIS-REPORT RAIN FOR SNOW...
$$

 *****  OTHER OBSERVATIONS SOUTHEAST NORTH DAKOTA *****

CITY           SKY/WX    TMP DP  RH WIND       PRES   REMARKS
COOPERSTOWN    NOT AVBL
VALLEY CITY    CLOUDY    59  59 100 NW7       30.26S
OAKES          NOT AVBL
GWINNER        CLOUDY    61  57  88 NW7       30.26R
BUFFALO        NOT AVBL
WYNDMERE       NOT AVBL
 ***** THE ABOVE OBSERVATIONS ARE NON NWS ARE NOT QUALITY
       CONTROLLED AND MAY MIS-REPORT RAIN FOR SNOW...
$$

  *****  WEATHER ACROSS NORTHERN MINNESOTA  *****

CITY           SKY/WX    TMP DP  RH WIND       PRES   REMARKS
FLAG ISLAND    CLEAR     63  57  82 N7        30.18S
WARROAD        CLOUDY    57  54  88 NW7       30.20S
ROSEAU         CLOUDY    57  54  88 NW3       30.21R
HALLOCK        MOCLDY    55  54  94 NW3       30.23R
THF RVR FALLS  CLOUDY    61  55  82 NW7       30.22R
HALSTAD          N/A     59  55  87 NW6         N/A
FOSSTON        CLOUDY    57  55  94 CALM      30.22R
BAUDETTE       MOCLDY    57  54  89 VRB5      30.19S
WASKISH        MOCLDY    59  55  88 CALM      30.19R
CROOKSTON      CLOUDY    61  55  82 N8        30.23S
$$
  *****  WEATHER ACROSS CENTRAL AND WEST MINNESOTA  *****

CITY           SKY/WX    TMP DP  RH WIND       PRES   REMARKS
BEMIDJI        CLOUDY    58  55  87 NW6       30.19S
PARK RAPIDS    CLOUDY    60  55  83 NW7       30.20R
WADENA         CLOUDY    59  57  94 NW3       30.20S
DETROIT LAKES  CLOUDY    59  57  94 NW6       30.23S
MOORHEAD       CLOUDY    61  61 100 N6        30.23S
FERGUS FALLS   CLOUDY    61  55  82 NW6       30.22R
ELBOW LAKE     CLOUDY    61  59  92 NW7       30.21R
MORRIS MN      CLOUDY    61  59  94 NW6       30.20S
STAPLES        CLOUDY    61  55  82 N5        30.19S
WHEATON        NOT AVBL
$$
  *****  WEATHER ELSEWHERE ACROSS MINNESOTA  *****

CITY           SKY/WX    TMP DP  RH WIND       PRES   REMARKS
DULUTH         CLOUDY    57  53  86 NW5       30.14R
INTRNTL FALLS  CLEAR     47  45  93 CALM      30.16S
ELY            CLOUDY    54  52  94 CALM      30.14S
CLOQUET        CLOUDY    55  54  94 NW6       30.15R
BRAINERD       CLOUDY    62  56  80 NW7       30.18R
HIBBING        CLOUDY    56  52  86 NW6       30.16R
ALEXANDRIA     CLOUDY    62  59  90 N6        30.21S
SAINT CLOUD    CLOUDY    64  58  80 NW3       30.16S
MINNEAPOLIS    CLOUDY    64  57  78 NW7       30.15R
$$

  *****  WEATHER ACROSS SOUTH DAKOTA  *****

CITY           SKY/WX    TMP DP  RH WIND       PRES   REMARKS
SIOUX FALLS    CLEAR     57  54  89 NW6       30.23S
BROOKINGS      NOT AVBL
WATERTOWN      CLOUDY    60  56  86 NW8       30.24S
HURON          CLEAR     52  51  97 NW7       30.26S
SISSETON         N/A     59  57  93 NW7       30.23R
ABERDEEN       CLOUDY    54  52  93 NW6       30.27R
MITCHELL       CLEAR     56  54  93 W8        30.27R
PIERRE         CLEAR     55  53  93 W5        30.30R
MOBRIDGE       CLEAR     50  49  96 NW3       30.29R
RAPID CITY     CLEAR     52  49  89 CALM      30.36S
$$

  *****  SOME WEATHER IN NEARBY STATES *****

CITY           SKY/WX    TMP DP  RH WIND       PRES   REMARKS
GLASGOW MT     CLEAR     60  52  74 E12       30.26S
GREAT FALLS MT CLEAR     63  41  44 E7        30.21S
CHEYENNE WY    CLEAR     62  51  67 S8        30.40F
SCOTTSBLUFF NE CLEAR     62  51  67 E10       30.33S
OMAHA NE       CLEAR     61  56  83 N8        30.20S
DES MOINES IA  PTCLDY    63  57  81 N9        30.12R
DAVENPORT IA   CLOUDY    63  60  90 N7        30.03R
CHICAGO IL     PTCLDY    63  50  62 N13       29.94R
EAU CLAIRE WI  CLOUDY    59  54  83 CALM      30.11R
LA CROSSE WI   CLEAR     57  52  83 N8        30.10R
$$

  *****  SOME NATIONAL WEATHER *****

CITY           SKY/WX    TMP DP  RH WIND       PRES   REMARKS
LA GUARDIA NY  RAIN      71  65  81 SW17G29   29.57R
RALEIGH NC     CLOUDY    81  63  54 W8        29.75F
ATLANTA GA     CLOUDY    79  72  79 SW7       29.94S
NEW ORLEANS LA PTCLDY    80  76  87 SW9       30.02F
OKLAHOMA CITY  MOCLDY    78  64  61 NE5       30.14R
ALBUQUERQUE NM MOCLDY    73  57  57 NW9       30.34S
SALT LAKE CITY CLOUDY    85  47  26 S8        30.13R
LOS ANGELES CA MOCLDY    69  64  84 W7        30.03R
BOISE ID       MOCLDY    79  40  24 S5        30.01R
SEATTLE WA     CLEAR     66  52  60 N7        30.12R
$$

*** WEATHER ACROSS MANITOBA...SASKATCHEWAN AND ONTARIO ***
                ***ONTARIO***

CITY           SKY/WX    TMP DP  RH WIND       PRES   REMARKS
GERALDTON      PTCLDY    52  50  93 NW6       30.03R
THUNDER BAY    MOCLDY    54  52  94 SW7       30.06S
SIOUX LOOKOUT  NOT AVBL
TORONTO        RAIN      64  61  88 NE14G20   29.61F
BIG TROUT LK   CLOUDY    61  54  77 N6        30.04S
PICKLE LAKE    NOT AVBL
DRYDEN         CLEAR     54  52  94 NW6       30.15R
KENORA         PTCLDY    59  54  82 NW5       30.20R
$$
                *** MANITOBA***

CITY           SKY/WX    TMP DP  RH WIND       PRES   REMARKS
BRANDON        CLEAR     48  48 100 NW6       30.29R
DAUPHIN        CLEAR     52  50  93 W8        30.27R
ISLAND LAKE    MOCLDY    64  57  77 NW6       30.15S
PILOT MOUND      N/A     48  46  93 NW3         N/A
THE PAS        CLEAR     52  52 100 CALM      30.26R
THOMPSON       PTCLDY    52  48  87 NW3       30.19S
WINNIPEG       PTCLDY    48  46  93 NW6       30.24R
LYNN LAKE      CLEAR     54  48  82 W6        30.23S
CHURCHILL      PTCLDY    61  54  77 W7        30.03F
GILLAM         MOCLDY    66  55  68 NW8       30.11S
$$
                ***SASKATCHEWAN***

CITY           SKY/WX    TMP DP  RH WIND       PRES   REMARKS
ESTEVAN        MOCLDY    59  55  88 E2        30.31S
KINDERSLEY     PTCLDY    55  54  94 S6        30.26S
LLOYDMINSTER   CLEAR     57  55  94 SW7       30.24S
PRINCE ALBERT  CLOUDY    52  50  93 NE2       30.27S
REGINA         PTCLDY    55  54  94 E7        30.30S
YORKTON        CLEAR     54  50  87 SW2       30.30S


USA.gov is the U.S. government's official web portal to all federal, state and local government web resources and services.